| time (UTC) | temp F | wind direction | speed MPH | gust MPH | rain 1hr in | rain 24hr in | rain mn in | humidity % | barometer mb |
| 20260506133942 | 51 | 334 | 2.0 | 6.0 | 0.01 | 0.08 | 0.08 | 85 | 1008.0 |
| 20260506133435 | 51 | 345 | 3.0 | 7.0 | 0.01 | 0.08 | 0.08 | 85 | 1008.0 |
| 20260506132925 | 51 | 327 | 3.0 | 7.0 | 0.01 | 0.08 | 0.08 | 84 | 1008.0 |
| 20260506132423 | 50 | 345 | 4.0 | 7.0 | 0.01 | 0.08 | 0.08 | 83 | 1007.9 |
| 20260506132418 | 51 | 324 | 3.0 | 5.0 | 0.01 | 0.08 | 0.08 | 84 | 1008.0 |
| 20260506131457 | 50 | 6 | 3.0 | 7.0 | 0.01 | 0.08 | 0.08 | 83 | 1007.9 |
| 20260506130949 | 51 | 356 | 3.0 | 8.0 | 0.01 | 0.08 | 0.08 | 85 | 1007.8 |
| 20260506130441 | 50 | 302 | 4.0 | 8.0 | 0.01 | 0.08 | 0.08 | 84 | 1007.8 |
| 20260506125936 | 50 | 334 | 4.0 | 8.0 | 0.01 | 0.08 | 0.08 | 84 | 1007.8 |
| 20260506125433 | 51 | 16 | 4.0 | 6.0 | 0.00 | 0.07 | 0.07 | 85 | 1007.8 |
| 20260506125428 | 51 | 321 | 3.0 | 7.0 | 0.01 | 0.08 | 0.08 | 85 | 1007.8 |
| 20260506124922 | 51 | 19 | 4.0 | 7.0 | 0.01 | 0.08 | 0.08 | 85 | 1007.8 |
| 20260506124618 | 51 | 356 | 4.0 | 8.0 | 0.00 | 0.07 | 0.07 | 84 | 1007.8 |
| 20260506123357 | 51 | 324 | 4.0 | 11.0 | 0.00 | 0.07 | 0.07 | 83 | 1007.7 |
| 20260506122948 | 51 | 45 | 4.0 | 11.0 | 0.00 | 0.07 | 0.07 | 83 | 1007.7 |
| 20260506122435 | 51 | 351 | 5.0 | 10.0 | 0.00 | 0.07 | 0.07 | 83 | 1007.6 |
| 20260506121930 | 51 | 1 | 4.0 | 8.0 | 0.00 | 0.07 | 0.07 | 84 | 1007.6 |
| 20260506121420 | 51 | 356 | 3.0 | 7.0 | 0.00 | 0.07 | 0.07 | 84 | 1007.5 |
| 20260506120911 | 50 | 345 | 4.0 | 8.0 | 0.00 | 0.07 | 0.07 | 83 | 1007.6 |
| 20260506120408 | 50 | 16 | 4.0 | 8.0 | 0.00 | 0.07 | 0.07 | 85 | 1007.5 |
| 20260506120404 | 50 | 343 | 4.0 | 12.0 | 0.00 | 0.07 | 0.07 | 84 | 1007.6 |
| 20260506115854 | 50 | 356 | 4.0 | 12.0 | 0.00 | 0.07 | 0.07 | 83 | 1007.5 |
| 20260506114837 | 50 | 11 | 4.0 | 8.0 | 0.00 | 0.07 | 0.07 | 85 | 1007.5 |
| 20260506114431 | 50 | 25 | 4.0 | 9.0 | 0.00 | 0.07 | 0.07 | 87 | 1007.5 |
| 20260506114426 | 50 | 27 | 4.0 | 8.0 | 0.00 | 0.07 | 0.07 | 85 | 1007.5 |
| 20260506113918 | 50 | 43 | 4.0 | 8.0 | 0.00 | 0.07 | 0.07 | 86 | 1007.5 |
| 20260506112906 | 50 | 1 | 4.0 | 9.0 | 0.00 | 0.07 | 0.07 | 87 | 1007.4 |
| 20260506112400 | 50 | 321 | 4.0 | 11.0 | 0.00 | 0.07 | 0.07 | 88 | 1007.4 |
| 20260506112356 | 50 | 18 | 3.0 | 8.0 | 0.00 | 0.07 | 0.07 | 87 | 1007.4 |
| 20260506111341 | 50 | 16 | 3.0 | 11.0 | 0.00 | 0.07 | 0.07 | 88 | 1007.4 |
| 20260506110834 | 50 | 328 | 2.0 | 8.0 | 0.00 | 0.07 | 0.07 | 88 | 1007.3 |
| 20260506110324 | 50 | 326 | 2.0 | 6.0 | 0.01 | 0.07 | 0.07 | 89 | 1007.2 |
| 20260506105822 | 50 | 30 | 3.0 | 8.0 | 0.01 | 0.07 | 0.07 | 89 | 1007.3 |
| 20260506105412 | 50 | 10 | 4.0 | 8.0 | 0.01 | 0.07 | 0.07 | 89 | 1007.3 |
| 20260506104909 | 50 | 6 | 2.0 | 12.0 | 0.01 | 0.07 | 0.07 | 90 | 1007.3 |
| 20260506104905 | 50 | 301 | 3.0 | 8.0 | 0.01 | 0.07 | 0.07 | 89 | 1007.3 |
| 20260506103852 | 49 | 26 | 2.0 | 12.0 | 0.01 | 0.07 | 0.07 | 90 | 1007.3 |
| 20260506103343 | 49 | 14 | 4.0 | 11.0 | 0.01 | 0.07 | 0.07 | 89 | 1007.3 |
| 20260506102837 | 49 | 344 | 4.0 | 11.0 | 0.01 | 0.07 | 0.07 | 89 | 1007.3 |
| 20260506102327 | 49 | 10 | 5.0 | 13.0 | 0.01 | 0.07 | 0.07 | 89 | 1007.2 |
| 20260506101819 | 49 | 329 | 5.0 | 13.0 | 0.01 | 0.07 | 0.07 | 90 | 1007.2 |
| 20260506101319 | 50 | 11 | 4.0 | 10.0 | 0.01 | 0.07 | 0.07 | 90 | 1007.1 |
| 20260506100815 | 50 | 1 | 4.0 | 12.0 | 0.01 | 0.07 | 0.07 | 90 | 1007.1 |
| 20260506100407 | 49 | 6 | 5.0 | 12.0 | 0.00 | 0.06 | 0.06 | 90 | 1007.0 |
| 20260506095853 | 49 | 23 | 5.0 | 12.0 | 0.00 | 0.06 | 0.06 | 89 | 1007.0 |
| 20260506095349 | 49 | 356 | 3.0 | 8.0 | 0.00 | 0.06 | 0.06 | 90 | 1006.8 |
| 20260506095345 | 49 | 333 | 5.0 | 10.0 | 0.00 | 0.06 | 0.06 | 90 | 1007.0 |
| 20260506094837 | 49 | 328 | 4.0 | 9.0 | 0.00 | 0.06 | 0.06 | 90 | 1007.0 |
| 20260506093820 | 50 | 346 | 4.0 | 10.0 | 0.00 | 0.06 | 0.06 | 91 | 1006.8 |
| 20260506093815 | 50 | 343 | 4.0 | 10.0 | 0.00 | 0.06 | 0.06 | 90 | 1006.8 |
| 20260506093307 | 50 | 6 | 4.0 | 8.0 | 0.00 | 0.06 | 0.06 | 92 | 1006.8 |
| 20260506092904 | 50 | 319 | 4.0 | 8.0 | 0.00 | 0.06 | 0.06 | 91 | 1006.8 |
| 20260506091840 | 50 | 295 | 4.0 | 11.0 | 0.00 | 0.06 | 0.06 | 92 | 1006.7 |
| 20260506091333 | 50 | 319 | 4.0 | 11.0 | 0.00 | 0.06 | 0.06 | 92 | 1006.6 |
| 20260506090822 | 50 | 356 | 3.0 | 7.0 | 0.00 | 0.06 | 0.06 | 92 | 1006.6 |
| 20260506090315 | 50 | 345 | 3.0 | 6.0 | 0.00 | 0.06 | 0.06 | 93 | 1006.6 |
| 20260506085812 | 49 | 345 | 4.0 | 9.0 | 0.00 | 0.06 | 0.06 | 93 | 1006.6 |
| 20260506085307 | 49 | 307 | 4.0 | 10.0 | 0.01 | 0.06 | 0.06 | 93 | 1006.5 |
| 20260506085305 | 49 | 351 | 4.0 | 10.0 | 0.01 | 0.06 | 0.06 | 93 | 1006.5 |
| 20260506084353 | 49 | 1 | 4.0 | 9.0 | 0.01 | 0.06 | 0.06 | 93 | 1006.5 |
| 20260506083845 | 49 | 1 | 5.0 | 12.0 | 0.01 | 0.06 | 0.06 | 93 | 1006.4 |
| 20260506083334 | 49 | 341 | 5.0 | 12.0 | 0.01 | 0.06 | 0.06 | 93 | 1006.4 |
| 20260506083227 | 49 | 33 | 4.0 | 9.0 | 0.01 | 0.06 | 0.06 | 94 | 1006.4 |
| 20260506082310 | 49 | 338 | 4.0 | 9.0 | 0.01 | 0.06 | 0.06 | 94 | 1006.3 |
| 20260506081803 | 49 | 296 | 4.0 | 11.0 | 0.01 | 0.06 | 0.06 | 94 | 1006.3 |
| 20260506081304 | 49 | 344 | 5.0 | 11.0 | 0.01 | 0.06 | 0.06 | 94 | 1006.3 |
| 20260506080857 | 49 | 1 | 5.0 | 9.0 | 0.01 | 0.06 | 0.06 | 94 | 1006.3 |
| 20260506080347 | 49 | 6 | 5.0 | 9.0 | 0.01 | 0.06 | 0.06 | 94 | 1006.3 |
| 20260506073352 | 48 | 343 | 3.0 | 8.0 | 0.00 | 0.06 | 0.06 | 95 | 1006.2 |
| 20260506072844 | 48 | 319 | 3.0 | 8.0 | 0.00 | 0.06 | 0.06 | 94 | 1006.2 |
| 20260506072334 | 48 | 356 | 3.0 | 8.0 | 0.00 | 0.06 | 0.06 | 94 | 1006.2 |
| 20260506071825 | 48 | 338 | 4.0 | 7.0 | 0.00 | 0.06 | 0.06 | 95 | 1006.1 |
| 20260506071320 | 48 | 341 | 4.0 | 9.0 | 0.00 | 0.06 | 0.06 | 95 | 1006.1 |
| 20260506070810 | 48 | 349 | 3.0 | 9.0 | 0.00 | 0.06 | 0.06 | 95 | 1006.2 |
| 20260506070303 | 48 | 356 | 3.0 | 10.0 | 0.00 | 0.06 | 0.06 | 95 | 1006.2 |
| 20260506062256 | 47 | 14 | 4.0 | 8.0 | 0.01 | 0.06 | 0.06 | 95 | 1005.8 |
| 20260506061747 | 47 | 6 | 4.0 | 8.0 | 0.01 | 0.06 | 0.06 | 95 | 1005.8 |
| 20260506061239 | 47 | 6 | 4.0 | 10.0 | 0.01 | 0.06 | 0.06 | 95 | 1005.8 |
| 20260506060826 | 47 | 328 | 4.0 | 12.0 | 0.01 | 0.06 | 0.06 | 95 | 1005.7 |
| 20260506060332 | 47 | 334 | 5.0 | 12.0 | 0.01 | 0.06 | 0.06 | 95 | 1005.7 |
| 20260506051300 | 47 | 332 | 4.0 | 9.0 | 0.00 | 0.05 | 0.05 | 95 | 1005.7 |
| 20260506050751 | 47 | 344 | 4.0 | 8.0 | 0.00 | 0.05 | 0.05 | 95 | 1005.7 |
| 20260506050637 | 47 | 356 | 3.0 | 9.0 | 0.00 | 0.05 | 0.05 | 95 | 1005.7 |
| 20260506050333 | 47 | 328 | 4.0 | 8.0 | 0.00 | 0.05 | 0.05 | 95 | 1005.7 |
| 20260506044813 | 47 | 274 | 3.0 | 7.0 | 0.01 | 0.06 | 0.05 | 94 | 1005.7 |
| 20260506044304 | 47 | 345 | 3.0 | 7.0 | 0.01 | 0.06 | 0.05 | 94 | 1005.6 |
| 20260506043756 | 47 | 334 | 3.0 | 5.0 | 0.01 | 0.06 | 0.05 | 94 | 1005.7 |
| 20260506043245 | 47 | 316 | 4.0 | 9.0 | 0.01 | 0.06 | 0.05 | 94 | 1005.7 |
| 20260506042736 | 47 | 335 | 4.0 | 9.0 | 0.01 | 0.06 | 0.05 | 94 | 1005.6 |
| 20260506042229 | 47 | 328 | 4.0 | 8.0 | 0.01 | 0.06 | 0.05 | 94 | 1005.6 |
| 20260506041723 | 47 | 356 | 3.0 | 7.0 | 0.01 | 0.06 | 0.05 | 94 | 1005.6 |
| 20260506041604 | 47 | 12 | 3.0 | 8.0 | 0.01 | 0.06 | 0.05 | 94 | 1005.6 |
| 20260506041405 | 47 | 336 | 3.0 | 8.0 | 0.01 | 0.06 | 0.05 | 94 | 1005.6 |
| 20260506040255 | 47 | 356 | 3.0 | 6.0 | 0.01 | 0.06 | 0.05 | 94 | 1005.7 |
| 20260506035746 | 47 | 23 | 2.0 | 6.0 | 0.01 | 0.06 | 0.05 | 94 | 1005.6 |
| 20260506035236 | 47 | 352 | 3.0 | 6.0 | 0.01 | 0.06 | 0.05 | 94 | 1005.7 |
| 20260506034726 | 47 | 18 | 3.0 | 8.0 | 0.00 | 0.05 | 0.04 | 94 | 1005.8 |
| 20260506034722 | 47 | 338 | 3.0 | 7.0 | 0.00 | 0.05 | 0.04 | 94 | 1005.7 |
| 20260506034716 | 47 | 329 | 4.0 | 8.0 | 0.00 | 0.05 | 0.04 | 94 | 1005.7 |
| 20260506033309 | 47 | 324 | 3.0 | 7.0 | 0.00 | 0.05 | 0.04 | 94 | 1005.8 |
| 20260506032801 | 47 | 334 | 2.0 | 5.0 | 0.00 | 0.05 | 0.04 | 94 | 1005.8 |
| 20260506032252 | 47 | 316 | 3.0 | 7.0 | 0.00 | 0.05 | 0.04 | 94 | 1005.7 |
| 20260506031744 | 47 | 311 | 3.0 | 6.0 | 0.00 | 0.05 | 0.04 | 94 | 1005.8 |
| 20260506031237 | 47 | 6 | 2.0 | 8.0 | 0.00 | 0.05 | 0.04 | 94 | 1005.8 |
| 20260506030732 | 47 | 340 | 3.0 | 7.0 | 0.01 | 0.05 | 0.04 | 94 | 1005.9 |
| 20260506030222 | 47 | 322 | 3.0 | 8.0 | 0.01 | 0.05 | 0.04 | 94 | 1006.0 |
| 20260506025711 | 47 | 356 | 3.0 | 8.0 | 0.01 | 0.05 | 0.04 | 94 | 1006.1 |
| 20260506025306 | 47 | 351 | 2.0 | 8.0 | 0.01 | 0.05 | 0.04 | 94 | 1006.0 |
| 20260506024758 | 47 | 348 | 2.0 | 6.0 | 0.01 | 0.05 | 0.04 | 94 | 1006.0 |
| 20260506024250 | 47 | 342 | 2.0 | 5.0 | 0.01 | 0.05 | 0.04 | 94 | 1006.1 |
| 20260506024137 | 47 | 291 | 2.0 | 5.0 | 0.01 | 0.05 | 0.04 | 93 | 1006.1 |
| 20260506023531 | 47 | 347 | 3.0 | 7.0 | 0.01 | 0.05 | 0.04 | 93 | 1006.1 |
| 20260506023027 | 47 | 356 | 3.0 | 7.0 | 0.01 | 0.05 | 0.04 | 93 | 1006.1 |
| 20260506022216 | 47 | 325 | 2.0 | 8.0 | 0.01 | 0.05 | 0.04 | 93 | 1006.2 |
| 20260506021710 | 47 | 323 | 3.0 | 8.0 | 0.01 | 0.05 | 0.04 | 93 | 1006.1 |
| 20260506021205 | 47 | 342 | 3.0 | 8.0 | 0.01 | 0.06 | 0.04 | 93 | 1006.2 |
| 20260506020809 | 47 | 331 | 3.0 | 6.0 | 0.00 | 0.05 | 0.03 | 93 | 1006.2 |
| 20260506020246 | 48 | 330 | 3.0 | 6.0 | 0.00 | 0.05 | 0.03 | 93 | 1006.2 |
| 20260506020136 | 47 | 334 | 2.0 | 6.0 | 0.00 | 0.05 | 0.03 | 93 | 1006.2 |
| 20260506015228 | 48 | 352 | 2.0 | 9.0 | 0.01 | 0.05 | 0.03 | 93 | 1006.3 |
| 20260506014720 | 48 | 6 | 2.0 | 9.0 | 0.01 | 0.05 | 0.03 | 93 | 1006.3 |
| 20260506014211 | 48 | 341 | 2.0 | 5.0 | 0.01 | 0.05 | 0.03 | 93 | 1006.3 |
| 20260506013659 | 48 | 6 | 2.0 | 5.0 | 0.01 | 0.05 | 0.03 | 93 | 1006.3 |
| 20260506013654 | 48 | 320 | 2.0 | 7.0 | 0.01 | 0.05 | 0.03 | 93 | 1006.4 |
| 20260506012750 | 48 | 24 | 2.0 | 7.0 | 0.01 | 0.05 | 0.03 | 93 | 1006.4 |
| 20260506012240 | 48 | 356 | 3.0 | 6.0 | 0.01 | 0.05 | 0.03 | 93 | 1006.4 |
| 20260506011732 | 48 | 349 | 3.0 | 7.0 | 0.01 | 0.05 | 0.03 | 93 | 1006.4 |
| 20260506011526 | 48 | 30 | 2.0 | 7.0 | 0.01 | 0.05 | 0.03 | 93 | 1006.4 |
| 20260506010719 | 48 | 330 | 2.0 | 6.0 | 0.01 | 0.05 | 0.03 | 93 | 1006.5 |
| 20260506010211 | 48 | 346 | 3.0 | 6.0 | 0.01 | 0.05 | 0.03 | 93 | 1006.4 |
| 20260506005704 | 48 | 349 | 3.0 | 6.0 | 0.01 | 0.05 | 0.03 | 93 | 1006.5 |
| 20260506005456 | 48 | 310 | 3.0 | 7.0 | 0.00 | 0.05 | 0.03 | 93 | 1006.6 |
| 20260506005040 | 48 | 356 | 2.0 | 6.0 | 0.01 | 0.05 | 0.02 | 93 | 1006.7 |
| 20260506005036 | 48 | 36 | 2.0 | 7.0 | 0.01 | 0.05 | 0.02 | 93 | 1006.6 |
| 20260506004230 | 48 | 6 | 2.0 | 6.0 | 0.01 | 0.05 | 0.02 | 93 | 1006.7 |
| 20260506003729 | 48 | 324 | 2.0 | 5.0 | 0.01 | 0.05 | 0.02 | 93 | 1006.6 |
| 20260506002714 | 48 | 6 | 1.0 | 6.0 | 0.01 | 0.05 | 0.02 | 93 | 1006.7 |
| 20260506002205 | 48 | 339 | 2.0 | 4.0 | 0.01 | 0.05 | 0.02 | 93 | 1006.7 |
| 20260506001657 | 48 | 337 | 2.0 | 7.0 | 0.01 | 0.05 | 0.02 | 93 | 1006.7 |
| 20260506001151 | 48 | 337 | 2.0 | 7.0 | 0.01 | 0.05 | 0.02 | 93 | 1006.8 |
| 20260506000743 | 48 | 328 | 2.0 | 6.0 | 0.01 | 0.05 | 0.02 | 93 | 1006.8 |
| 20260506000235 | 48 | 341 | 3.0 | 6.0 | 0.02 | 0.05 | 0.02 | 93 | 1006.9 |
| 20260505235727 | 49 | 10 | 2.0 | 6.0 | 0.02 | 0.05 | 0.02 | 92 | 1006.9 |
| 20260505235221 | 49 | 339 | 1.0 | 4.0 | 0.02 | 0.05 | 0.02 | 92 | 1007.0 |
| 20260505235110 | 49 | 345 | 2.0 | 6.0 | 0.01 | 0.04 | 0.02 | 92 | 1007.0 |
| 20260505234205 | 49 | 335 | 2.0 | 6.0 | 0.01 | 0.04 | 0.02 | 92 | 1007.0 |
| 20260505233656 | 49 | 352 | 2.0 | 5.0 | 0.01 | 0.04 | 0.02 | 92 | 1007.1 |
| 20260505233151 | 49 | 345 | 2.0 | 7.0 | 0.01 | 0.04 | 0.02 | 92 | 1007.1 |
| 20260505232740 | 49 | 339 | 3.0 | 8.0 | 0.01 | 0.04 | 0.02 | 92 | 1007.1 |
| 20260505232230 | 49 | 315 | 2.0 | 8.0 | 0.02 | 0.04 | 0.02 | 92 | 1007.1 |
| 20260505231725 | 49 | 349 | 2.0 | 6.0 | 0.02 | 0.04 | 0.02 | 92 | 1007.2 |
| 20260505231217 | 49 | 10 | 2.0 | 6.0 | 0.02 | 0.04 | 0.02 | 91 | 1007.2 |
| 20260505230706 | 49 | 303 | 2.0 | 7.0 | 0.02 | 0.04 | 0.02 | 91 | 1007.2 |
| 20260505230159 | 49 | 10 | 3.0 | 7.0 | 0.01 | 0.03 | 0.01 | 91 | 1007.2 |
| 20260505225651 | 49 | 25 | 3.0 | 6.0 | 0.01 | 0.03 | 0.01 | 91 | 1007.2 |
| 20260505225145 | 49 | 327 | 2.0 | 6.0 | 0.01 | 0.03 | 0.01 | 91 | 1007.3 |
| 20260505224735 | 49 | 351 | 3.0 | 8.0 | 0.01 | 0.03 | 0.01 | 91 | 1007.3 |
| 20260505224227 | 49 | 350 | 3.0 | 8.0 | 0.01 | 0.03 | 0.01 | 91 | 1007.2 |
| 20260505223719 | 49 | 325 | 3.0 | 6.0 | 0.01 | 0.03 | 0.01 | 91 | 1007.3 |
| 20260505223216 | 50 | 10 | 2.0 | 6.0 | 0.01 | 0.04 | 0.01 | 90 | 1007.3 |
| 20260505222707 | 50 | 349 | 2.0 | 4.0 | 0.01 | 0.04 | 0.01 | 90 | 1007.3 |
| 20260505222500 | 50 | 339 | 2.0 | 5.0 | 0.00 | 0.03 | 0.00 | 90 | 1007.3 |
| 20260505221650 | 50 | 347 | 2.0 | 6.0 | 0.00 | 0.03 | 0.00 | 90 | 1007.3 |
| 20260505221143 | 50 | 10 | 3.0 | 7.0 | 0.00 | 0.03 | 0.00 | 89 | 1007.4 |
| 20260505221034 | 50 | 6 | 4.0 | 8.0 | 0.00 | 0.03 | 0.00 | 89 | 1007.4 |
| 20260505220221 | 50 | 346 | 4.0 | 8.0 | 0.00 | 0.03 | 0.00 | 89 | 1007.4 |
| 20260505215710 | 50 | 334 | 3.0 | 8.0 | 0.00 | 0.03 | 0.03 | 89 | 1007.4 |
| 20260505215201 | 50 | 346 | 4.0 | 9.0 | 0.00 | 0.03 | 0.03 | 89 | 1007.4 |
| 20260505214653 | 50 | 329 | 3.0 | 9.0 | 0.00 | 0.03 | 0.03 | 89 | 1007.5 |
| 20260505214148 | 50 | 6 | 2.0 | 5.0 | 0.00 | 0.04 | 0.03 | 89 | 1007.5 |
| 20260505213638 | 50 | 340 | 3.0 | 7.0 | 0.00 | 0.04 | 0.03 | 89 | 1007.5 |
| 20260505213228 | 50 | 336 | 3.0 | 7.0 | 0.00 | 0.04 | 0.03 | 89 | 1007.6 |
| 20260505212721 | 50 | 25 | 3.0 | 7.0 | 0.00 | 0.04 | 0.03 | 89 | 1007.6 |
| 20260505212307 | 50 | 6 | 3.0 | 7.0 | 0.00 | 0.05 | 0.03 | 89 | 1007.5 |
| 20260505212046 | 50 | 314 | 3.0 | 7.0 | 0.00 | 0.05 | 0.03 | 89 | 1007.6 |
| 20260505211253 | 50 | 6 | 4.0 | 9.0 | 0.00 | 0.05 | 0.03 | 89 | 1007.6 |
| 20260505211053 | 50 | 335 | 4.0 | 9.0 | 0.00 | 0.05 | 0.03 | 89 | 1007.6 |
| 20260505210231 | 50 | 349 | 3.0 | 8.0 | 0.00 | 0.05 | 0.03 | 89 | 1007.7 |
| 20260505210034 | 50 | 19 | 4.0 | 7.0 | 0.00 | 0.06 | 0.03 | 89 | 1007.8 |
| 20260505205315 | 51 | 332 | 4.0 | 9.0 | 0.00 | 0.06 | 0.03 | 89 | 1007.7 |
| 20260505205118 | 51 | 10 | 4.0 | 9.0 | 0.00 | 0.06 | 0.03 | 89 | 1007.7 |
| 20260505204259 | 51 | 1 | 3.0 | 9.0 | 0.00 | 0.06 | 0.03 | 89 | 1007.8 |
| 20260505203749 | 51 | 35 | 5.0 | 12.0 | 0.00 | 0.06 | 0.03 | 89 | 1007.8 |
| 20260505203242 | 51 | 18 | 5.0 | 12.0 | 0.00 | 0.06 | 0.03 | 89 | 1007.8 |
| 20260505202734 | 51 | 309 | 4.0 | 11.0 | 0.00 | 0.06 | 0.03 | 89 | 1007.8 |
| 20260505202226 | 51 | 18 | 3.0 | 10.0 | 0.00 | 0.06 | 0.03 | 89 | 1007.8 |
| 20260505201716 | 51 | 320 | 2.0 | 5.0 | 0.00 | 0.06 | 0.03 | 89 | 1007.8 |
| 20260505201300 | 51 | 334 | 3.0 | 8.0 | 0.00 | 0.06 | 0.03 | 89 | 1007.8 |
| 20260505200755 | 51 | 21 | 3.0 | 8.0 | 0.00 | 0.06 | 0.03 | 89 | 1007.7 |
| 20260505200248 | 51 | 348 | 3.0 | 6.0 | 0.00 | 0.06 | 0.03 | 89 | 1007.7 |
| 20260505195738 | 51 | 52 | 3.0 | 8.0 | 0.00 | 0.06 | 0.03 | 89 | 1007.7 |
| 20260505195230 | 51 | 6 | 4.0 | 8.0 | 0.00 | 0.06 | 0.03 | 89 | 1007.7 |
| 20260505194724 | 51 | 356 | 4.0 | 7.0 | 0.00 | 0.06 | 0.03 | 89 | 1007.6 |
| 20260505194213 | 51 | 349 | 3.0 | 7.0 | 0.00 | 0.06 | 0.03 | 89 | 1007.6 |
| 20260505194016 | 51 | 6 | 3.0 | 7.0 | 0.00 | 0.06 | 0.03 | 89 | 1007.5 |
| 20260505193911 | 51 | 17 | 2.0 | 8.0 | 0.00 | 0.06 | 0.03 | 89 | 1007.5 |
| 20260505192750 | 51 | 324 | 2.0 | 6.0 | 0.00 | 0.06 | 0.03 | 90 | 1007.4 |
| 20260505192743 | 51 | 351 | 3.0 | 8.0 | 0.00 | 0.06 | 0.03 | 89 | 1007.5 |
| 20260505192237 | 51 | 47 | 2.0 | 7.0 | 0.00 | 0.06 | 0.03 | 89 | 1007.4 |
| 20260505191833 | 51 | 347 | 2.0 | 7.0 | 0.00 | 0.06 | 0.03 | 90 | 1007.4 |
| 20260505190715 | 51 | 345 | 2.0 | 6.0 | 0.00 | 0.06 | 0.03 | 90 | 1007.4 |
| 20260505190207 | 51 | 322 | 3.0 | 7.0 | 0.00 | 0.06 | 0.03 | 90 | 1007.4 |
| 20260505185701 | 51 | 324 | 2.0 | 7.0 | 0.00 | 0.06 | 0.03 | 90 | 1007.3 |
| 20260505185250 | 51 | 350 | 2.0 | 4.0 | 0.00 | 0.06 | 0.03 | 89 | 1007.3 |
| 20260505184743 | 51 | 351 | 2.0 | 4.0 | 0.00 | 0.06 | 0.03 | 89 | 1007.3 |
| 20260505184233 | 51 | 348 | 2.0 | 5.0 | 0.00 | 0.06 | 0.03 | 89 | 1007.4 |
| 20260505183726 | 51 | 345 | 2.0 | 5.0 | 0.00 | 0.06 | 0.03 | 89 | 1007.4 |
| 20260505183223 | 51 | 30 | 2.0 | 5.0 | 0.00 | 0.06 | 0.03 | 89 | 1007.3 |
| 20260505182714 | 51 | 338 | 3.0 | 6.0 | 0.00 | 0.06 | 0.03 | 89 | 1007.3 |
| 20260505182207 | 51 | 346 | 3.0 | 6.0 | 0.00 | 0.06 | 0.03 | 89 | 1007.3 |
| 20260505182007 | 51 | 356 | 3.0 | 6.0 | 0.00 | 0.06 | 0.03 | 90 | 1007.3 |
| 20260505181246 | 51 | 349 | 3.0 | 6.0 | 0.00 | 0.06 | 0.03 | 89 | 1007.3 |
| 20260505180732 | 51 | 356 | 2.0 | 6.0 | 0.00 | 0.06 | 0.03 | 89 | 1007.4 |
| 20260505180227 | 51 | 18 | 2.0 | 7.0 | 0.00 | 0.06 | 0.03 | 90 | 1007.4 |
| 20260505175727 | 51 | 356 | 2.0 | 6.0 | 0.00 | 0.06 | 0.03 | 90 | 1007.4 |
| 20260505175720 | 51 | 326 | 3.0 | 7.0 | 0.00 | 0.06 | 0.03 | 90 | 1007.4 |
| 20260505174708 | 51 | 351 | 1.0 | 4.0 | 0.00 | 0.06 | 0.03 | 90 | 1007.4 |
| 20260505174203 | 51 | 6 | 1.0 | 5.0 | 0.00 | 0.06 | 0.03 | 90 | 1007.5 |
| 20260505173654 | 52 | 6 | 2.0 | 6.0 | 0.00 | 0.06 | 0.03 | 90 | 1007.4 |
| 20260505173148 | 51 | 350 | 3.0 | 7.0 | 0.00 | 0.06 | 0.03 | 90 | 1007.4 |
| 20260505172734 | 51 | 67 | 2.0 | 7.0 | 0.00 | 0.06 | 0.03 | 90 | 1007.4 |
| 20260505172223 | 52 | 319 | 3.0 | 7.0 | 0.00 | 0.06 | 0.03 | 90 | 1007.3 |
| 20260505171723 | 52 | 340 | 3.0 | 6.0 | 0.00 | 0.06 | 0.03 | 90 | 1007.3 |
| 20260505171715 | 52 | 348 | 3.0 | 7.0 | 0.00 | 0.06 | 0.03 | 90 | 1007.3 |
| 20260505170701 | 52 | 356 | 2.0 | 8.0 | 0.00 | 0.06 | 0.03 | 90 | 1007.4 |
| 20260505170154 | 52 | 324 | 3.0 | 8.0 | 0.00 | 0.06 | 0.03 | 90 | 1007.4 |
| 20260505165650 | 52 | 340 | 3.0 | 8.0 | 0.00 | 0.06 | 0.03 | 90 | 1007.4 |
| 20260505165144 | 52 | 20 | 3.0 | 8.0 | 0.00 | 0.06 | 0.03 | 90 | 1007.5 |
| 20260505164731 | 52 | 280 | 3.0 | 7.0 | 0.00 | 0.06 | 0.03 | 90 | 1007.5 |
| 20260505164223 | 52 | 319 | 3.0 | 8.0 | 0.00 | 0.06 | 0.03 | 90 | 1007.5 |
| 20260505163714 | 52 | 17 | 3.0 | 8.0 | 0.00 | 0.06 | 0.03 | 90 | 1007.5 |
| 20260505163204 | 52 | 351 | 2.0 | 6.0 | 0.00 | 0.06 | 0.03 | 90 | 1007.5 |
| 20260505162658 | 52 | 346 | 2.0 | 6.0 | 0.00 | 0.06 | 0.03 | 90 | 1007.5 |
| 20260505162150 | 52 | 356 | 2.0 | 6.0 | 0.00 | 0.06 | 0.03 | 90 | 1007.6 |
| 20260505161641 | 52 | 305 | 2.0 | 5.0 | 0.00 | 0.06 | 0.03 | 90 | 1007.6 |
| 20260505161136 | 52 | 6 | 3.0 | 7.0 | 0.00 | 0.06 | 0.03 | 90 | 1007.6 |
| 20260505160734 | 52 | 29 | 2.0 | 6.0 | 0.00 | 0.06 | 0.03 | 90 | 1007.7 |
| 20260505160630 | 52 | 342 | 3.0 | 7.0 | 0.00 | 0.06 | 0.03 | 89 | 1007.6 |
| 20260505153141 | 52 | 346 | 2.0 | 7.0 | 0.00 | 0.06 | 0.03 | 90 | 1007.8 |
| 20260505152627 | 52 | 42 | 3.0 | 8.0 | 0.00 | 0.06 | 0.03 | 90 | 1007.8 |
| 20260505152215 | 52 | 11 | 2.0 | 8.0 | 0.00 | 0.06 | 0.03 | 90 | 1007.9 |
| 20260505151705 | 52 | 328 | 2.0 | 6.0 | 0.00 | 0.06 | 0.03 | 90 | 1007.9 |
| 20260505151158 | 52 | 322 | 3.0 | 8.0 | 0.00 | 0.06 | 0.03 | 90 | 1007.9 |
| 20260505150650 | 52 | 351 | 3.0 | 8.0 | 0.00 | 0.06 | 0.03 | 90 | 1008.0 |
| 20260505150140 | 52 | 328 | 3.0 | 8.0 | 0.00 | 0.06 | 0.03 | 90 | 1008.0 |
| 20260505140614 | 51 | 28 | 3.0 | 8.0 | 0.00 | 0.06 | 0.03 | 91 | 1008.3 |